Simultaneous Nadir Overpasses (SNOs) Predictions

Prediction of SNOs between METOP-A and NOAA-19 Satellite Orbit:

Table of predicted SNOs for the next 14.0 days since TLE Epoch: 4/20/2019
Index Date (METOP-A) Time (METOP-A) Lat,Lon (METOP-A) SZA (METOP-A ) Date (NOAA-19) Time (NOAA-19) Lat,Lon (NOAA-19) SZA (NOAA-19 ) Distance(km) Time Diff (sec)
1 04/22/2019 10:19:24 -79.57,-143.20 112.43 04/22/2019 10:18:10 -79.55,-143.21 112.45 1.69 74
2 04/22/2019 11:10:04 79.56, 24.11 67.56 04/22/2019 11:09:16 79.55, 24.07 67.54 2.06 48
3 04/22/2019 12:00:46 -79.55,-168.71 112.48 04/22/2019 12:00:11 -79.56,-168.74 112.47 1.25 35
4 04/22/2019 12:51:26 79.54, -1.41 67.51 04/22/2019 12:51:17 79.55, -1.46 67.52 1.31 9
5 04/22/2019 13:42:07 -79.56, 166.05 112.48 04/22/2019 13:42:11 -79.53, 166.01 112.51 3.20 4
6 04/22/2019 14:32:47 79.56, -26.65 67.50 04/22/2019 14:33:17 79.53, -26.70 67.48 3.58 30
7 04/22/2019 15:23:29 -79.54, 140.54 112.54 04/22/2019 15:24:12 -79.53, 140.48 112.53 1.24 43
8 04/22/2019 16:14:09 79.53, -52.16 67.45 04/22/2019 16:15:18 79.53, -52.24 67.46 1.66 69
9 05/03/2019 08:09:29 -79.60,-110.60 115.82 05/03/2019 08:08:23 -79.59,-110.68 115.85 2.52 66
10 05/03/2019 09:00:09 79.59, 56.64 64.16 05/03/2019 08:59:28 79.57, 56.67 64.14 1.93 41
11 05/03/2019 09:50:51 -79.58,-136.11 115.87 05/03/2019 09:50:24 -79.59,-136.22 115.87 2.39 27
12 05/03/2019 10:41:31 79.57, 31.12 64.11 05/03/2019 10:41:29 79.58, 31.14 64.12 1.04 2
13 05/03/2019 11:32:13 -79.56,-161.62 115.92 05/03/2019 11:32:24 -79.56,-161.47 115.90 3.23 11
14 05/03/2019 12:22:52 79.58, 5.88 64.10 05/03/2019 12:23:29 79.55, 5.89 64.08 3.10 37
15 05/03/2019 13:13:34 -79.57, 173.13 115.92 05/03/2019 13:14:25 -79.57, 173.00 115.92 2.71 51




NCC Satellite Simultaneous Nadir Overpasses (SNOs) Prediction Service
